St-Nazaire, France

2:16 AM CEST on April 21, 2018 (GMT +0200)
Montoir

Weather History for LFRZ - December, 2012

Change the Weather History Date:

Saturday, December 1, 2012

  Actual Average Record
Temperature  
Mean Temperature 39 °F -  
Max Temperature 48 °F 47 °F 59 °F (2000)
Min Temperature 30 °F 38 °F 23 °F (2010)
Degree Days  
Heating Degree Days 26    
Moisture  
Dew Point 33 °F    
Average Humidity 86    
Maximum Humidity 100    
Minimum Humidity 62    
Precipitation  
Precipitation 0.00 in - - ()
Sea Level Pressure  
Sea Level Pressure 30.05 in    
Wind  
Wind Speed 3 mph ()    
Max Wind Speed 8 mph    
Max Gust Speed -    
Visibility 4.8 miles    
Events      
Averages and records for this station are not official NWS values.
T = Trace of Precipitation, MM = Missing Value Source: Averaged Metar Reports

Daily Weather History Graph

Daily Weather History Graph

Search for Another Location

Airport or City:

Astronomy

Dec. 01, 2012 Rise Set
Actual Time 8:35 AM CET 5:20 PM CET
Civil Twilight 8:00 AM CET 5:55 PM CET
Nautical Twilight 7:21 AM CET 6:33 PM CET
Astronomical Twilight 6:44 AM CET 7:10 PM CET
Moon 7:59 PM CET (12/1) 10:36 AM CET (12/1)
Length of Visible Light 9h 54m
Length of Day
8h 45m
Waning Gibbous, 93% of the Moon is Illuminated
Dec 1
Waning Gibbous
Dec 6
Last Quarter
Dec 13
New
Dec 20
First Quarter
Dec 28
Full

Hourly Weather History & Observations

Time (CET) Temp. Windchill Dew Point Humidity Pressure Visibility Wind Dir Wind Speed Gust Speed Precip Events Conditions
12:00 AM 32.0 °F - 30.2 °F 93% 29.98 in 3.1 mi North 1.2 mph - N/A   Mist
12:30 AM 32.0 °F - 30.2 °F 93% 29.98 in 3.1 mi Calm Calm - N/A   Mist
1:00 AM 32.0 °F - 32.0 °F 100% 29.98 in 3.1 mi WNW 1.2 mph - N/A   Mist
1:30 AM 32.0 °F - 30.2 °F 93% 29.98 in 2.8 mi Calm Calm - N/A   Mist
2:00 AM 33.8 °F - 32.0 °F 93% 29.98 in 3.7 mi NNW 2.3 mph - N/A   Unknown
2:30 AM 32.0 °F - 30.2 °F 93% 29.98 in 3.1 mi NNW 2.3 mph - N/A   Mist
3:00 AM 32.0 °F 28.7 °F 30.2 °F 93% 29.98 in 3.1 mi North 3.5 mph - N/A   Mist
3:30 AM 30.2 °F - 30.2 °F 100% 29.98 in - North 2.3 mph - N/A   Mist
4:00 AM 30.2 °F - 30.2 °F 100% 29.98 in - North 1.2 mph - N/A   Mist
4:30 AM 32.0 °F 28.7 °F 30.2 °F 93% 29.98 in - North 3.5 mph - N/A   Mist
5:00 AM 32.0 °F - 30.2 °F 93% 29.98 in - NNW 2.3 mph - N/A   Mist
5:30 AM 32.0 °F - 30.2 °F 93% 29.98 in - North 2.3 mph - N/A   Mist
6:00 AM 32.0 °F 28.7 °F 30.2 °F 93% 30.01 in - NNW 3.5 mph - N/A   Mist
6:30 AM 30.2 °F 26.7 °F 30.2 °F 100% 30.01 in - North 3.5 mph - N/A   Mist
7:00 AM 30.2 °F - 30.2 °F 100% 30.01 in - North 2.3 mph - N/A   Mist
7:30 AM 30.2 °F - 30.2 °F 100% 30.01 in 1.4 mi North 2.3 mph - N/A   Mist
8:00 AM 32.0 °F - 30.2 °F 93% 30.04 in 1.7 mi North 2.3 mph - N/A   Mist
8:30 AM 30.2 °F - 30.2 °F 100% 30.04 in 1.7 mi NNE 2.3 mph - N/A   Mist
9:00 AM 32.0 °F 28.7 °F 30.2 °F 93% 30.04 in 1.7 mi North 3.5 mph - N/A   Mist
9:30 AM 30.2 °F - 30.2 °F 100% 30.04 in - Calm Calm - N/A   Mist
10:00 AM 32.0 °F - 32.0 °F 100% 30.06 in 1.7 mi Calm Calm - N/A   Mist
10:30 AM 33.8 °F 30.8 °F 32.0 °F 93% 30.06 in - North 3.5 mph - N/A   Mist
11:00 AM 35.6 °F - 35.6 °F 100% 30.09 in 2.8 mi Calm Calm - N/A   Mist
11:30 AM 37.4 °F - 35.6 °F 93% 30.09 in - North 1.2 mph - N/A   Mist
12:00 PM 39.2 °F - 37.4 °F 93% 30.09 in 3.1 mi Variable 1.2 mph - N/A   Mist
12:30 PM 41.0 °F - 37.4 °F 87% 30.09 in 5.6 mi Calm Calm - N/A   Overcast
1:00 PM 41.0 °F - 37.4 °F 87% 30.09 in 5.6 mi Variable 2.3 mph - N/A   Mostly Cloudy
1:30 PM 44.6 °F 43.1 °F 35.6 °F 71% 30.09 in 6.2 mi West 3.5 mph - N/A   Unknown
2:00 PM 46.4 °F 45.2 °F 35.6 °F 66% 30.06 in 6.2 mi West 3.5 mph - N/A   Unknown
2:30 PM 46.4 °F 43.5 °F 37.4 °F 71% 30.09 in 6.2 mi NW 5.8 mph - N/A   Scattered Clouds
3:00 PM 48.2 °F - 35.6 °F 62% 30.09 in 6.2 mi WNW 6.9 mph - N/A   Partly Cloudy
3:30 PM 48.2 °F - 35.6 °F 62% 30.06 in 6.2 mi West 5.8 mph - N/A   Partly Cloudy
4:00 PM 48.2 °F - 35.6 °F 62% 30.06 in 6.2 mi West 5.8 mph - N/A   Unknown
4:30 PM 48.2 °F - 35.6 °F 62% 30.06 in 6.2 mi West 6.9 mph - N/A   Unknown
5:00 PM 44.6 °F 41.4 °F 35.6 °F 71% 30.09 in 6.2 mi West 5.8 mph - N/A   Unknown
5:30 PM 41.0 °F 37.1 °F 35.6 °F 81% 30.09 in 6.2 mi WSW 5.8 mph - N/A   Unknown
6:00 PM 39.2 °F 34.2 °F 33.8 °F 81% 30.09 in 6.2 mi WSW 6.9 mph - N/A   Unknown
6:30 PM 41.0 °F 36.4 °F 35.6 °F 81% 30.09 in 6.2 mi West 6.9 mph - N/A   Unknown
7:00 PM 42.8 °F 38.6 °F 35.6 °F 76% 30.09 in 6.2 mi West 6.9 mph - N/A   Unknown
7:30 PM 41.0 °F 37.1 °F 33.8 °F 76% 30.09 in 6.2 mi West 5.8 mph - N/A   Unknown
8:00 PM 41.0 °F 37.1 °F 35.6 °F 81% 30.09 in 6.2 mi West 5.8 mph - N/A   Mostly Cloudy
8:30 PM 42.8 °F 38.0 °F 35.6 °F 76% 30.09 in 6.2 mi West 8.1 mph - N/A   Partly Cloudy
9:00 PM 41.0 °F 37.1 °F 33.8 °F 76% 30.09 in 6.2 mi West 5.8 mph - N/A   Unknown
9:30 PM 37.4 °F 32.8 °F 33.8 °F 87% 30.09 in 6.2 mi WSW 5.8 mph - N/A   Unknown
10:00 PM 42.8 °F 38.0 °F 37.4 °F 81% 30.12 in 6.2 mi West 8.1 mph - N/A   Unknown
10:30 PM 42.8 °F 39.3 °F 35.6 °F 76% 30.09 in 6.2 mi West 5.8 mph - N/A   Unknown
11:00 PM 44.6 °F 41.4 °F 39.2 °F 81% 30.09 in 6.2 mi West 5.8 mph - N/A   Unknown
11:30 PM 44.6 °F 42.2 °F 39.2 °F 81% 30.12 in 6.2 mi WNW 4.6 mph - N/A   Mostly Cloudy